User: anonymous   Login
Location: Oshawa
(43.9000°N, 78.8670°W)
Time: 01:24:47
(UTC-04:00)
Language:

Cosmos 1953 Rocket - Orbit

View from above orbital plane
View from above orbital plane
View from above satellite
View from above satellite

Ground track
Ground track

The orbit data is extracted from the following two-line orbital elements,

1 19211U 88050B   17230.82344046  .00000067  00000-0  52941-5 0  9998
2 19211  82.5285 143.8495 0020296 271.4295 146.8338 14.82970335576079
Epoch (UTC): 18 August 2017 19:45:45
Eccentricity: 0.0020296
inclination: 82.5285°
perigee height: 606 km
apogee height: 634 km
right ascension of ascending node: 143.8495°
argument of perigee: 271.4295°
revolutions per day: 14.82970335
mean anomaly at epoch: 146.8338°
orbit number at epoch: 57607

The dashed part of the orbit path shows where the satellite is in the earth's shadow,  

DLR